ANA115 CYVR-RJTT

Flight info

Callsign ANA115
Flight time N/A
Altitude 36000
Route YVR4/26L UQQ DCT KATCH DCT HMPTN DCT GRIZZ DCT CJAYY DCT 59N160W DCT SELDM/N0486F380 DCT OGGOE DCT NANDY DCT NATES DCT NIKLL DCT NYMPH DCT NUZAN DCT NRKEY DCT NIPPI/N0482F400 R220 NUBDA/N0481F410 R220 NANAC/N0481F400 Z22 LOSVA Y810 AKRIT Y807 POLIX
Aircraft B772/H-SDE2E3FGHIJ5LORVWXY/LB1D1

Departure

Time N/A
Airport Vancouver International Airport (CYVR)

Arrival

Time 2026-05-04 06:06
Airport Tokyo Haneda International Airport (RJTT)
Time Latitude Longitude Altitude Speed Heading
2026-05-04 00:06 58.17544 -154.29685 36074 ft 457 kts 276°
2026-05-04 00:06 58.19712 -154.42457 36050 ft 462 kts 277°
2026-05-04 00:06 58.21655 -154.53949 36017 ft 459 kts 276°
2026-05-04 00:07 58.23585 -154.65459 36015 ft 461 kts 276°
2026-05-04 00:07 58.25524 -154.77099 35999 ft 462 kts 276°
2026-05-04 00:08 58.27440 -154.88650 35970 ft 459 kts 276°
2026-05-04 00:08 58.29353 -155.00300 35956 ft 463 kts 276°
2026-05-04 00:09 58.31253 -155.11911 35955 ft 458 kts 276°
2026-05-04 00:09 58.32193 -155.17698 36257 ft 462 kts 276°
2026-05-04 00:09 58.33142 -155.23575 35807 ft 467 kts 276°
2026-05-04 00:10 58.34085 -155.29383 36232 ft 458 kts 276°
2026-05-04 00:10 58.35017 -155.35176 36063 ft 462 kts 275°
2026-05-04 00:10 58.36882 -155.46828 36040 ft 462 kts 275°
2026-05-04 00:11 58.38734 -155.58454 36045 ft 457 kts 275°
2026-05-04 00:11 58.40568 -155.70072 36057 ft 460 kts 275°
2026-05-04 00:12 58.42388 -155.81674 36058 ft 461 kts 275°
2026-05-04 00:12 58.45369 -156.00837 36058 ft 461 kts 275°
2026-05-04 00:13 58.48124 -156.18738 36051 ft 464 kts 275°
2026-05-04 00:13 58.49926 -156.30542 36054 ft 459 kts 275°
2026-05-04 00:14 58.51703 -156.42296 36045 ft 463 kts 275°
2026-05-04 00:14 58.53472 -156.54062 36083 ft 464 kts 275°
2026-05-04 00:15 58.55237 -156.65879 36066 ft 462 kts 275°
2026-05-04 00:15 58.56982 -156.77647 36074 ft 462 kts 275°
2026-05-04 00:16 58.58731 -156.89554 36077 ft 467 kts 275°
2026-05-04 00:16 58.60476 -157.01480 36081 ft 465 kts 275°
2026-05-04 00:17 58.62198 -157.13341 36086 ft 460 kts 275°
2026-05-04 00:17 58.63906 -157.25222 36080 ft 466 kts 275°
2026-05-04 00:18 58.65631 -157.37301 36081 ft 467 kts 275°
2026-05-04 00:18 58.67322 -157.49201 36088 ft 461 kts 276°
2026-05-04 00:19 58.68998 -157.61122 36089 ft 466 kts 276°
2026-05-04 00:19 58.70675 -157.73121 36098 ft 466 kts 275°
2026-05-04 00:20 58.72343 -157.85158 36089 ft 467 kts 275°
2026-05-04 00:20 58.73991 -157.97121 36103 ft 464 kts 276°
2026-05-04 00:21 58.75619 -158.09052 36105 ft 465 kts 276°
2026-05-04 00:21 58.77251 -158.21113 36107 ft 469 kts 276°
2026-05-04 00:22 58.78873 -158.33167 36116 ft 465 kts 276°
2026-05-04 00:22 58.80480 -158.45221 36121 ft 467 kts 276°
2026-05-04 00:23 58.82081 -158.57323 36114 ft 467 kts 276°
2026-05-04 00:23 58.83668 -158.69405 36124 ft 465 kts 275°
2026-05-04 00:24 58.85247 -158.81558 36134 ft 471 kts 276°
2026-05-04 00:24 58.86826 -158.93775 36122 ft 468 kts 276°
2026-05-04 00:25 58.88382 -159.05924 36119 ft 468 kts 276°
2026-05-04 00:25 58.89932 -159.18130 36112 ft 470 kts 276°
2026-05-04 00:26 58.91476 -159.30386 36110 ft 471 kts 277°
2026-05-04 00:26 58.93001 -159.42592 36115 ft 469 kts 276°
2026-05-04 00:27 58.94525 -159.54909 36109 ft 474 kts 277°
2026-05-04 00:27 58.96043 -159.67252 36106 ft 469 kts 276°
2026-05-04 00:28 58.97534 -159.79511 36096 ft 472 kts 276°
2026-05-04 00:28 58.99034 -159.91950 36091 ft 474 kts 276°
2026-05-04 00:29 58.99769 -160.04424 36099 ft 463 kts 265°
2026-05-04 00:29 58.99924 -160.16870 36119 ft 463 kts 265°
2026-05-04 00:30 59.00017 -160.29332 36124 ft 465 kts 265°
2026-05-04 00:30 59.00067 -160.41870 36137 ft 466 kts 265°
2026-05-04 00:31 59.00089 -160.54364 36142 ft 465 kts 265°
2026-05-04 00:31 59.00091 -160.66898 36134 ft 467 kts 264°
2026-05-04 00:32 59.00076 -160.79481 36112 ft 468 kts 264°
2026-05-04 00:32 59.00046 -160.92055 36106 ft 470 kts 265°
2026-05-04 00:33 58.99977 -161.10994 36114 ft 471 kts 265°
2026-05-04 00:34 58.99916 -161.23643 36122 ft 470 kts 265°
2026-05-04 00:34 58.99841 -161.36307 36113 ft 472 kts 265°
2026-05-04 00:35 58.99623 -161.65257 36113 ft 472 kts 264°
2026-05-04 00:35 58.99508 -161.77897 36136 ft 470 kts 265°
2026-05-04 00:36 58.99380 -161.90527 36145 ft 472 kts 264°
2026-05-04 00:36 58.99240 -162.03181 36147 ft 471 kts 265°
2026-05-04 00:37 58.99088 -162.15825 36144 ft 471 kts 265°
2026-05-04 00:37 58.98923 -162.28479 36148 ft 472 kts 265°
2026-05-04 00:38 58.98745 -162.41174 36146 ft 473 kts 265°
2026-05-04 00:38 58.98555 -162.53859 36154 ft 473 kts 265°
2026-05-04 00:39 58.98352 -162.66554 36162 ft 474 kts 264°
2026-05-04 00:39 58.98137 -162.79269 36165 ft 474 kts 264°
2026-05-04 00:40 58.97908 -162.91987 36166 ft 475 kts 264°
2026-05-04 00:40 58.97668 -163.04703 36175 ft 475 kts 265°
2026-05-04 00:41 58.97415 -163.17435 36181 ft 475 kts 265°
2026-05-04 00:41 58.97149 -163.30165 36182 ft 475 kts 265°
2026-05-04 00:42 58.96870 -163.42892 36184 ft 475 kts 265°
2026-05-04 00:42 58.96579 -163.55634 36187 ft 476 kts 265°
2026-05-04 00:43 58.96275 -163.68402 36192 ft 475 kts 264°
2026-05-04 00:43 58.95959 -163.81134 36192 ft 476 kts 264°
2026-05-04 00:44 58.95630 -163.93877 36194 ft 476 kts 264°
2026-05-04 00:44 58.95288 -164.06629 36195 ft 476 kts 264°
2026-05-04 00:45 58.94933 -164.19384 36195 ft 476 kts 265°
2026-05-04 00:45 58.94567 -164.32132 36198 ft 477 kts 265°
2026-05-04 00:46 58.94187 -164.44895 36198 ft 477 kts 265°
2026-05-04 00:46 58.93794 -164.57664 36203 ft 477 kts 265°
2026-05-04 00:47 58.93388 -164.70454 36207 ft 478 kts 264°
2026-05-04 00:47 58.92969 -164.83228 36209 ft 478 kts 264°
2026-05-04 00:48 58.92538 -164.96008 36214 ft 478 kts 265°
2026-05-04 00:48 58.92094 -165.08788 36215 ft 478 kts 265°
2026-05-04 00:49 58.91637 -165.21565 36215 ft 478 kts 265°
2026-05-04 00:49 58.91169 -165.34327 36214 ft 478 kts 265°
2026-05-04 00:50 58.90688 -165.47081 36213 ft 478 kts 265°
2026-05-04 00:50 58.90193 -165.59849 36214 ft 478 kts 265°
2026-05-04 00:51 58.89686 -165.72631 36214 ft 477 kts 264°
2026-05-04 00:51 58.89167 -165.85358 36215 ft 477 kts 264°
2026-05-04 00:52 58.88605 -165.98099 36243 ft 481 kts 263°
2026-05-04 00:52 58.88284 -166.04503 36487 ft 480 kts 263°
2026-05-04 00:52 58.87962 -166.10856 36829 ft 477 kts 263°
2026-05-04 00:52 58.87637 -166.17183 37084 ft 475 kts 263°
2026-05-04 00:53 58.87308 -166.23533 37262 ft 476 kts 263°
2026-05-04 00:53 58.86976 -166.29873 37407 ft 477 kts 263°
2026-05-04 00:53 58.86641 -166.36211 37570 ft 477 kts 263°
2026-05-04 00:53 58.86263 -166.43288 37755 ft 477 kts 263°
2026-05-04 00:54 58.85300 -166.60972 38213 ft 477 kts 263°
2026-05-04 00:54 58.84101 -166.82401 38194 ft 478 kts 263°
2026-05-04 00:55 58.83374 -166.95092 38195 ft 478 kts 263°
2026-05-04 00:55 58.82634 -167.07782 38195 ft 478 kts 263°
2026-05-04 00:56 58.81882 -167.20463 38198 ft 478 kts 263°
2026-05-04 00:56 58.81119 -167.33116 38199 ft 477 kts 263°
2026-05-04 00:57 58.80343 -167.45760 38202 ft 477 kts 263°
2026-05-04 00:57 58.79555 -167.58405 38205 ft 477 kts 263°
2026-05-04 00:58 58.78753 -167.71057 38209 ft 477 kts 262°
2026-05-04 00:58 58.77942 -167.83660 38212 ft 476 kts 262°
2026-05-04 00:59 58.77119 -167.96261 38212 ft 477 kts 262°
2026-05-04 00:59 58.76282 -168.08870 38215 ft 476 kts 263°
2026-05-04 01:00 58.75434 -168.21446 38215 ft 476 kts 263°
2026-05-04 01:00 58.74574 -168.34022 38214 ft 476 kts 263°
2026-05-04 01:01 58.73703 -168.46585 38215 ft 477 kts 263°
2026-05-04 01:01 58.72817 -168.59168 38214 ft 476 kts 263°
2026-05-04 01:02 58.71919 -168.71744 38216 ft 477 kts 262°
2026-05-04 01:02 58.71009 -168.84313 38215 ft 476 kts 262°
2026-05-04 01:03 58.70087 -168.96861 38215 ft 476 kts 262°
2026-05-04 01:03 58.69153 -169.09412 38220 ft 477 kts 262°
2026-05-04 01:04 58.68206 -169.21959 38222 ft 476 kts 262°
2026-05-04 01:04 58.67248 -169.34493 38218 ft 477 kts 262°
2026-05-04 01:05 58.66277 -169.47026 38216 ft 476 kts 262°
2026-05-04 01:05 58.65293 -169.59551 38218 ft 477 kts 262°
2026-05-04 01:06 58.64296 -169.72090 38219 ft 477 kts 262°
2026-05-04 01:06 58.63289 -169.84604 38220 ft 477 kts 262°
2026-05-04 01:07 58.62268 -169.97120 38218 ft 477 kts 262°
2026-05-04 01:07 58.61236 -170.09615 38218 ft 477 kts 262°
2026-05-04 01:08 58.60192 -170.22109 38217 ft 476 kts 262°
2026-05-04 01:08 58.59137 -170.34582 38217 ft 476 kts 262°
2026-05-04 01:09 58.58070 -170.47038 38215 ft 476 kts 262°
2026-05-04 01:09 58.56992 -170.59480 38222 ft 476 kts 262°
2026-05-04 01:10 58.55903 -170.71904 38214 ft 475 kts 261°
2026-05-04 01:10 58.54802 -170.84320 38217 ft 476 kts 261°
2026-05-04 01:11 58.53687 -170.96744 38214 ft 476 kts 261°
2026-05-04 01:11 58.52562 -171.09153 38218 ft 475 kts 261°
2026-05-04 01:12 58.51425 -171.21541 38216 ft 475 kts 261°
2026-05-04 01:12 58.50277 -171.33914 38218 ft 475 kts 261°
2026-05-04 01:13 58.49117 -171.46284 38221 ft 475 kts 261°
2026-05-04 01:13 58.47945 -171.58640 38219 ft 474 kts 261°
2026-05-04 01:14 58.46765 -171.70959 38219 ft 474 kts 261°
2026-05-04 01:14 58.45571 -171.83282 38214 ft 474 kts 261°
2026-05-04 01:15 58.44366 -171.95595 38219 ft 474 kts 261°
2026-05-04 01:15 58.43150 -172.07885 38218 ft 473 kts 261°
2026-05-04 01:16 58.41925 -172.20144 38219 ft 473 kts 261°
2026-05-04 01:16 58.40687 -172.32405 38216 ft 473 kts 261°
2026-05-04 01:17 58.39438 -172.44645 38217 ft 471 kts 261°
2026-05-04 01:17 58.38181 -172.56849 38206 ft 471 kts 261°
2026-05-04 01:18 58.36912 -172.69050 38214 ft 472 kts 260°
2026-05-04 01:18 58.35630 -172.81251 38218 ft 471 kts 260°
2026-05-04 01:19 58.34340 -172.93406 38217 ft 471 kts 260°
2026-05-04 01:19 58.33038 -173.05563 38215 ft 470 kts 260°
2026-05-04 01:20 58.31727 -173.17689 38230 ft 471 kts 260°
2026-05-04 01:20 58.30402 -173.29824 38211 ft 470 kts 260°
2026-05-04 01:21 58.29071 -173.41901 38212 ft 469 kts 261°
2026-05-04 01:21 58.27728 -173.53973 38209 ft 469 kts 260°
2026-05-04 01:22 58.26325 -173.66005 38219 ft 469 kts 259°
2026-05-04 01:22 58.24898 -173.78020 38210 ft 468 kts 259°
2026-05-04 01:23 58.23461 -173.90012 38218 ft 468 kts 259°
2026-05-04 01:23 58.22011 -174.02000 38227 ft 468 kts 259°
2026-05-04 01:24 58.20549 -174.13982 38221 ft 469 kts 259°
2026-05-04 01:24 58.19076 -174.25958 38204 ft 468 kts 259°
2026-05-04 01:25 58.17595 -174.37890 38213 ft 468 kts 259°
2026-05-04 01:25 58.16097 -174.49860 38222 ft 469 kts 259°
2026-05-04 01:26 58.14591 -174.61799 38211 ft 469 kts 259°
2026-05-04 01:26 58.13072 -174.73737 38222 ft 468 kts 258°
2026-05-04 01:27 58.11545 -174.85646 38204 ft 469 kts 258°
2026-05-04 01:27 58.10003 -174.97575 38200 ft 469 kts 258°
2026-05-04 01:28 58.08450 -175.09486 38197 ft 469 kts 258°
2026-05-04 01:28 58.06888 -175.21379 38199 ft 469 kts 258°
2026-05-04 01:29 58.05314 -175.33263 38197 ft 469 kts 258°
2026-05-04 01:29 58.03730 -175.45126 38202 ft 468 kts 258°
2026-05-04 01:30 58.02134 -175.56992 38204 ft 469 kts 259°
2026-05-04 01:30 58.00529 -175.68826 38182 ft 467 kts 258°
2026-05-04 01:31 57.97844 -175.88435 38199 ft 470 kts 258°
2026-05-04 01:31 57.94558 -176.12089 38206 ft 468 kts 258°
2026-05-04 01:32 57.91061 -176.36875 38205 ft 467 kts 258°
2026-05-04 01:32 57.85287 -176.76975 38211 ft 466 kts 257°
2026-05-04 01:33 57.83579 -176.88644 38191 ft 465 kts 258°
2026-05-04 01:33 57.81863 -177.00292 38203 ft 465 kts 258°
2026-05-04 01:34 57.80137 -177.11916 38185 ft 465 kts 258°
2026-05-04 01:34 57.78404 -177.23514 38196 ft 465 kts 257°
2026-05-04 01:35 57.76657 -177.35118 38204 ft 465 kts 257°
2026-05-04 01:35 57.74898 -177.46717 38186 ft 465 kts 257°
2026-05-04 01:36 57.73131 -177.58291 38190 ft 465 kts 257°
2026-05-04 01:36 57.71350 -177.69878 38208 ft 465 kts 256°
2026-05-04 01:37 57.69556 -177.81465 38183 ft 465 kts 256°
2026-05-04 01:37 57.67757 -177.93011 38189 ft 466 kts 256°
2026-05-04 01:38 57.65942 -178.04571 38192 ft 466 kts 256°
2026-05-04 01:38 57.64119 -178.16114 38183 ft 465 kts 256°
2026-05-04 01:39 57.62288 -178.27623 38174 ft 465 kts 256°
2026-05-04 01:39 57.60446 -178.39122 38193 ft 465 kts 256°
2026-05-04 01:40 57.58594 -178.50609 38189 ft 465 kts 256°
2026-05-04 01:40 57.56731 -178.62092 38189 ft 465 kts 256°
2026-05-04 01:41 57.54858 -178.73559 38178 ft 465 kts 255°
2026-05-04 01:41 57.52974 -178.85017 38179 ft 466 kts 255°
2026-05-04 01:42 57.51079 -178.96463 38187 ft 465 kts 255°
2026-05-04 01:42 57.49174 -179.07902 38171 ft 465 kts 255°
2026-05-04 01:43 57.47257 -179.19334 38176 ft 466 kts 255°
2026-05-04 01:43 57.45328 -179.30762 38176 ft 466 kts 255°
2026-05-04 01:44 57.43388 -179.42188 38178 ft 466 kts 255°
2026-05-04 01:44 57.41435 -179.53613 38174 ft 467 kts 254°
2026-05-04 01:45 57.39469 -179.65041 38172 ft 467 kts 254°
2026-05-04 01:45 57.36500 -179.82169 38172 ft 468 kts 254°
2026-05-04 01:46 57.34507 -179.93573 38172 ft 468 kts 253°
2026-05-04 01:46 57.32499 179.95004 38170 ft 469 kts 253°
2026-05-04 01:47 57.30481 179.83598 38175 ft 468 kts 253°
2026-05-04 01:47 57.28455 179.72218 38178 ft 468 kts 253°
2026-05-04 01:48 57.26414 179.60828 38173 ft 468 kts 253°
2026-05-04 01:48 57.24366 179.49463 38169 ft 469 kts 253°
2026-05-04 01:49 57.22306 179.38106 38164 ft 468 kts 253°
2026-05-04 01:49 57.20239 179.26774 38168 ft 469 kts 252°
2026-05-04 01:50 57.18155 179.15420 38165 ft 469 kts 252°
2026-05-04 01:50 57.16063 179.04090 38165 ft 469 kts 252°
2026-05-04 01:51 57.13962 178.92781 38153 ft 469 kts 252°
2026-05-04 01:51 57.11847 178.81462 38149 ft 470 kts 252°
2026-05-04 01:52 57.09718 178.70138 38148 ft 470 kts 252°
2026-05-04 01:52 57.07580 178.58833 38144 ft 471 kts 252°
2026-05-04 01:53 57.05424 178.47501 38143 ft 471 kts 252°
2026-05-04 01:53 57.03259 178.36188 38140 ft 472 kts 252°
2026-05-04 01:54 57.01080 178.24869 38133 ft 473 kts 251°
2026-05-04 01:54 56.98888 178.13548 38133 ft 473 kts 251°
2026-05-04 01:55 56.96686 178.02237 38135 ft 473 kts 251°
2026-05-04 01:55 56.94464 177.90895 38132 ft 474 kts 251°
2026-05-04 01:56 56.92239 177.79603 38133 ft 474 kts 251°
2026-05-04 01:56 56.90001 177.68309 38124 ft 474 kts 251°
2026-05-04 01:57 56.87755 177.57036 38121 ft 474 kts 251°
2026-05-04 01:57 56.85497 177.45773 38114 ft 475 kts 251°
2026-05-04 01:58 56.82977 177.34669 38108 ft 475 kts 242°
2026-05-04 01:58 56.79782 177.24152 38109 ft 477 kts 241°
2026-05-04 01:59 56.76523 177.13696 38109 ft 476 kts 241°
2026-05-04 01:59 56.73234 177.03284 38105 ft 476 kts 241°
2026-05-04 02:00 56.69923 176.92896 38102 ft 476 kts 240°
2026-05-04 02:00 56.66599 176.82538 38100 ft 477 kts 240°
2026-05-04 02:01 56.63260 176.72191 38094 ft 477 kts 240°
2026-05-04 02:01 56.59911 176.61867 38097 ft 477 kts 240°
2026-05-04 02:02 56.53211 176.41354 38087 ft 477 kts 240°
2026-05-04 02:02 56.49829 176.31069 38087 ft 478 kts 239°
2026-05-04 02:03 56.45411 176.17699 38079 ft 478 kts 239°
2026-05-04 02:03 56.31704 175.76694 38048 ft 480 kts 239°
2026-05-04 02:04 56.17809 175.35826 38139 ft 481 kts 239°
2026-05-04 02:04 56.03734 174.95120 37818 ft 484 kts 238°
2026-05-04 02:05 55.96673 174.74956 38119 ft 482 kts 238°
2026-05-04 02:05 55.94890 174.69890 38023 ft 483 kts 238°
2026-05-04 02:05 55.91328 174.59794 38021 ft 484 kts 238°
2026-05-04 02:06 55.87745 174.49689 38012 ft 484 kts 238°
2026-05-04 02:06 55.80699 174.29937 38003 ft 486 kts 237°
2026-05-04 02:07 55.74282 174.12092 38000 ft 487 kts 237°
2026-05-04 02:07 55.71804 174.05233 37988 ft 487 kts 237°
2026-05-04 02:08 55.70909 174.02759 37994 ft 487 kts 237°
2026-05-04 02:08 55.67259 173.92702 37991 ft 487 kts 237°
2026-05-04 02:09 55.63575 173.82595 37985 ft 487 kts 237°
2026-05-04 02:09 55.59866 173.72459 37983 ft 488 kts 237°
2026-05-04 02:10 55.56169 173.62396 37984 ft 488 kts 237°
2026-05-04 02:10 55.48928 173.42811 37959 ft 489 kts 237°
2026-05-04 02:11 55.41463 173.22781 37952 ft 489 kts 236°
2026-05-04 02:11 55.34024 173.02983 37946 ft 489 kts 236°
2026-05-04 02:12 55.26553 172.83258 37937 ft 490 kts 236°
2026-05-04 02:12 55.16216 172.56224 37921 ft 490 kts 236°
2026-05-04 02:13 55.08642 172.36603 37898 ft 490 kts 236°
2026-05-04 02:13 55.01012 172.16994 37881 ft 491 kts 234°
2026-05-04 02:14 54.93277 171.97495 37875 ft 491 kts 231°
2026-05-04 02:14 54.84706 171.79185 37867 ft 493 kts 230°
2026-05-04 02:15 54.76016 171.60890 37853 ft 494 kts 230°
2026-05-04 02:15 54.67334 171.42766 37839 ft 495 kts 230°
2026-05-04 02:16 54.58705 171.24887 37832 ft 495 kts 229°
2026-05-04 02:16 54.49893 171.06766 37825 ft 495 kts 229°
2026-05-04 02:17 54.41100 170.88818 37814 ft 498 kts 229°
2026-05-04 02:17 54.32366 170.71118 37808 ft 497 kts 229°
2026-05-04 02:18 54.23535 170.53351 37777 ft 498 kts 229°
2026-05-04 02:18 54.14627 170.35556 37781 ft 499 kts 229°
2026-05-04 02:19 54.05609 170.17676 37765 ft 500 kts 227°
2026-05-04 02:19 53.96677 170.00091 37750 ft 500 kts 227°
2026-05-04 02:20 53.87628 169.82404 37728 ft 500 kts 228°
2026-05-04 02:20 53.78508 169.64706 37734 ft 501 kts 228°
2026-05-04 02:21 53.69420 169.47197 37695 ft 501 kts 228°
2026-05-04 02:21 53.60932 169.29054 37716 ft 502 kts 240°
2026-05-04 02:22 53.54378 169.08375 37709 ft 503 kts 241°
2026-05-04 02:22 53.47821 168.87976 37681 ft 504 kts 241°
2026-05-04 02:23 53.41245 168.67750 37665 ft 504 kts 241°
2026-05-04 02:23 53.34566 168.47388 37660 ft 505 kts 241°
2026-05-04 02:24 53.27835 168.27066 37639 ft 504 kts 240°
2026-05-04 02:24 53.21072 168.06868 37640 ft 505 kts 240°
2026-05-04 02:25 53.14211 167.86541 37646 ft 505 kts 241°
2026-05-04 02:25 53.07378 167.66464 37644 ft 505 kts 241°
2026-05-04 02:26 53.00519 167.46471 37603 ft 507 kts 241°
2026-05-04 02:26 52.93549 167.26317 37604 ft 506 kts 240°
2026-05-04 02:27 52.86595 167.06374 37599 ft 507 kts 240°
2026-05-04 02:27 52.79596 166.86459 37589 ft 504 kts 240°
2026-05-04 02:28 52.72565 166.66614 37583 ft 506 kts 240°
2026-05-04 02:28 52.65473 166.46753 37574 ft 504 kts 240°
2026-05-04 02:29 52.58357 166.26982 37553 ft 505 kts 240°
2026-05-04 02:29 52.51235 166.07347 37561 ft 504 kts 240°
2026-05-04 02:30 52.44113 165.87868 37558 ft 503 kts 240°
2026-05-04 02:30 52.36986 165.68522 37548 ft 503 kts 240°
2026-05-04 02:31 52.29885 165.49392 37550 ft 502 kts 240°
2026-05-04 02:31 52.22683 165.30140 37541 ft 501 kts 239°
2026-05-04 02:32 52.15462 165.10981 37544 ft 500 kts 239°
2026-05-04 02:32 52.08306 164.92135 37556 ft 499 kts 239°
2026-05-04 02:33 52.01068 164.73213 37533 ft 499 kts 239°
2026-05-04 02:33 51.93813 164.54389 37534 ft 497 kts 239°
2026-05-04 02:34 51.86607 164.35827 37527 ft 495 kts 239°
2026-05-04 02:34 51.79338 164.17240 37518 ft 495 kts 239°
2026-05-04 02:35 51.72049 163.98734 37525 ft 494 kts 239°
2026-05-04 02:35 51.64841 163.80566 37525 ft 492 kts 239°
2026-05-04 02:36 51.57504 163.62200 37521 ft 491 kts 239°
2026-05-04 02:36 51.50225 163.44107 37529 ft 488 kts 240°
2026-05-04 02:37 51.42983 163.26229 37548 ft 487 kts 239°
2026-05-04 02:37 51.35744 163.08484 37538 ft 485 kts 239°
2026-05-04 02:38 51.28397 162.90595 37541 ft 483 kts 239°
2026-05-04 02:38 51.21127 162.73016 37551 ft 482 kts 239°
2026-05-04 02:39 51.13778 162.55365 37551 ft 481 kts 239°
2026-05-04 02:39 51.06490 162.37980 37560 ft 480 kts 240°
2026-05-04 02:40 50.99166 162.20624 37554 ft 479 kts 239°
2026-05-04 02:40 50.91819 162.03330 37550 ft 477 kts 239°
2026-05-04 02:41 50.84526 161.86276 37549 ft 476 kts 240°
2026-05-04 02:41 50.77204 161.69265 37543 ft 474 kts 240°
2026-05-04 02:42 50.69896 161.52396 37552 ft 471 kts 240°
2026-05-04 02:42 50.62552 161.35553 37546 ft 469 kts 240°
2026-05-04 02:43 50.55238 161.18886 37552 ft 468 kts 239°
2026-05-04 02:43 50.47964 161.02414 37560 ft 467 kts 239°
2026-05-04 02:44 50.37363 160.78591 37559 ft 462 kts 239°
2026-05-04 02:44 50.27291 160.56157 37556 ft 459 kts 240°
2026-05-04 02:45 50.20022 160.40085 37564 ft 457 kts 240°
2026-05-04 02:45 50.12701 160.24063 37574 ft 456 kts 239°
2026-05-04 02:46 50.05382 160.08156 37575 ft 453 kts 239°
2026-05-04 02:46 49.98091 159.92401 37579 ft 453 kts 239°
2026-05-04 02:47 49.90867 159.76880 37587 ft 452 kts 239°
2026-05-04 02:47 49.83566 159.61292 37587 ft 447 kts 240°
2026-05-04 02:48 49.76274 159.45808 37589 ft 447 kts 239°
2026-05-04 02:48 49.69076 159.30688 37610 ft 448 kts 238°
2026-05-04 02:49 49.61743 159.15756 37620 ft 446 kts 238°
2026-05-04 02:49 49.54306 159.00683 37569 ft 441 kts 239°
2026-05-04 02:50 49.46965 158.85874 37632 ft 443 kts 239°
2026-05-04 02:50 49.39606 158.71111 37641 ft 441 kts 239°
2026-05-04 02:51 49.32265 158.56464 37651 ft 440 kts 239°
2026-05-04 02:51 49.27605 158.47213 37656 ft 437 kts 239°
2026-05-04 02:52 49.23851 158.39779 37878 ft 440 kts 239°
2026-05-04 02:52 49.21980 158.36081 38181 ft 439 kts 239°
2026-05-04 02:52 49.20103 158.32380 38605 ft 435 kts 238°
2026-05-04 02:53 49.18236 158.28703 38858 ft 435 kts 239°
2026-05-04 02:53 49.16381 158.25051 39018 ft 436 kts 238°
2026-05-04 02:53 49.14513 158.21380 39222 ft 436 kts 238°
2026-05-04 02:53 49.12657 158.17738 39444 ft 436 kts 238°
2026-05-04 02:54 49.10800 158.14101 39675 ft 434 kts 238°
2026-05-04 02:54 49.08729 158.10047 39697 ft 437 kts 239°
2026-05-04 02:54 49.04955 158.02678 39710 ft 437 kts 238°
2026-05-04 02:55 48.99369 157.91813 39696 ft 434 kts 238°
2026-05-04 02:56 48.95621 157.84545 39700 ft 435 kts 238°
2026-05-04 02:56 48.91888 157.77329 39719 ft 430 kts 238°
2026-05-04 02:57 48.88194 157.70205 39724 ft 429 kts 239°
2026-05-04 02:57 48.84487 157.63072 39725 ft 431 kts 239°
2026-05-04 02:58 48.80790 157.55980 39715 ft 428 kts 238°
2026-05-04 02:58 48.77082 157.48886 39710 ft 428 kts 238°
2026-05-04 02:59 48.73398 157.41859 39726 ft 425 kts 238°
2026-05-04 02:59 48.69720 157.34855 39740 ft 427 kts 238°
2026-05-04 03:00 48.66022 157.27835 39771 ft 426 kts 238°
2026-05-04 03:00 48.62355 157.20897 39742 ft 418 kts 238°
2026-05-04 03:01 48.58722 157.14031 39746 ft 422 kts 238°
2026-05-04 03:01 48.55071 157.07155 39744 ft 419 kts 238°
2026-05-04 03:02 48.51428 157.00310 39765 ft 418 kts 238°
2026-05-04 03:02 48.47799 156.93508 39781 ft 416 kts 238°
2026-05-04 03:03 48.44189 156.86764 39798 ft 413 kts 239°
2026-05-04 03:03 48.40575 156.80019 39765 ft 416 kts 239°
2026-05-04 03:04 48.36930 156.73240 39784 ft 417 kts 238°
2026-05-04 03:04 48.33318 156.66544 39779 ft 410 kts 239°
2026-05-04 03:05 48.29720 156.59883 39784 ft 410 kts 238°
2026-05-04 03:05 48.26141 156.53275 39789 ft 410 kts 239°
2026-05-04 03:06 48.22566 156.46693 39778 ft 406 kts 239°
2026-05-04 03:06 48.18994 156.40128 39808 ft 409 kts 239°
2026-05-04 03:07 48.15413 156.33567 39801 ft 406 kts 238°
2026-05-04 03:07 48.11853 156.27056 39821 ft 408 kts 239°
2026-05-04 03:08 48.08271 156.20525 39825 ft 404 kts 238°
2026-05-04 03:08 48.04711 156.14048 39816 ft 404 kts 238°
2026-05-04 03:09 48.01149 156.07582 39838 ft 404 kts 239°
2026-05-04 03:09 47.97581 156.01120 39830 ft 404 kts 239°
2026-05-04 03:10 47.94011 155.94673 39836 ft 403 kts 239°
2026-05-04 03:10 47.90457 155.88270 39823 ft 400 kts 239°
2026-05-04 03:11 47.86928 155.81924 39831 ft 401 kts 239°
2026-05-04 03:11 47.83373 155.75548 39826 ft 401 kts 240°
2026-05-04 03:12 47.79832 155.69216 39835 ft 397 kts 240°
2026-05-04 03:12 47.76315 155.62938 39824 ft 396 kts 240°
2026-05-04 03:13 47.72776 155.56630 39838 ft 398 kts 240°
2026-05-04 03:13 47.69238 155.50345 39844 ft 397 kts 240°
2026-05-04 03:14 47.65718 155.44107 39828 ft 396 kts 240°
2026-05-04 03:14 47.62181 155.37849 39828 ft 395 kts 240°
2026-05-04 03:15 47.58688 155.31690 39850 ft 391 kts 240°
2026-05-04 03:15 47.55172 155.25493 39859 ft 395 kts 240°
2026-05-04 03:16 47.51649 155.19311 39872 ft 391 kts 240°
2026-05-04 03:16 47.48152 155.13180 39865 ft 392 kts 240°
2026-05-04 03:17 47.44658 155.07072 39874 ft 390 kts 240°
2026-05-04 03:17 47.41152 155.00952 39878 ft 392 kts 240°
2026-05-04 03:18 47.37663 154.94884 39878 ft 386 kts 240°
2026-05-04 03:18 47.34176 154.88823 39844 ft 389 kts 240°
2026-05-04 03:19 47.30654 154.82720 40132 ft 390 kts 240°
2026-05-04 03:19 47.28902 154.79691 40344 ft 388 kts 240°
2026-05-04 03:19 47.27154 154.76668 40395 ft 391 kts 240°
2026-05-04 03:19 47.25395 154.73631 40532 ft 391 kts 240°
2026-05-04 03:20 47.23625 154.70578 40614 ft 392 kts 240°
2026-05-04 03:20 47.21864 154.67546 40740 ft 392 kts 239°
2026-05-04 03:20 47.20092 154.64497 40862 ft 392 kts 239°
2026-05-04 03:21 47.16536 154.58389 40870 ft 394 kts 239°
2026-05-04 03:21 47.12995 154.52327 40877 ft 390 kts 240°
2026-05-04 03:22 47.09457 154.46276 40856 ft 391 kts 240°
2026-05-04 03:22 47.05921 154.40244 40867 ft 390 kts 240°
2026-05-04 03:23 47.02412 154.34273 40862 ft 386 kts 239°
2026-05-04 03:23 46.98884 154.28277 40890 ft 390 kts 239°
2026-05-04 03:24 46.95330 154.22254 40895 ft 391 kts 239°
2026-05-04 03:24 46.91780 154.16255 40893 ft 388 kts 239°
2026-05-04 03:25 46.88250 154.10298 40897 ft 388 kts 240°
2026-05-04 03:25 46.84699 154.04318 40888 ft 390 kts 239°
2026-05-04 03:26 46.81146 153.98350 40890 ft 390 kts 239°
2026-05-04 03:26 46.77572 153.92358 40882 ft 391 kts 239°
2026-05-04 03:27 46.74022 153.86424 40887 ft 389 kts 239°
2026-05-04 03:27 46.70485 153.80521 40890 ft 388 kts 239°
2026-05-04 03:28 46.66927 153.74595 40884 ft 391 kts 239°
2026-05-04 03:28 46.63364 153.68677 40882 ft 388 kts 239°
2026-05-04 03:29 46.59828 153.62814 40887 ft 388 kts 239°
2026-05-04 03:29 46.56280 153.56944 40887 ft 387 kts 239°
2026-05-04 03:30 46.52814 153.51222 40877 ft 386 kts 238°
2026-05-04 03:30 46.49285 153.45409 40880 ft 385 kts 239°
2026-05-04 03:31 46.45744 153.39585 40885 ft 388 kts 239°
2026-05-04 03:31 46.42173 153.33729 40899 ft 387 kts 238°
2026-05-04 03:32 46.38605 153.27887 40898 ft 389 kts 238°
2026-05-04 03:32 46.35045 153.22075 40896 ft 386 kts 238°
2026-05-04 03:33 46.31488 153.16277 40899 ft 385 kts 238°
2026-05-04 03:33 46.27929 153.10489 40896 ft 386 kts 238°
2026-05-04 03:34 46.24361 153.04695 40896 ft 387 kts 238°
2026-05-04 03:34 46.20790 152.98930 40900 ft 388 kts 238°
2026-05-04 03:35 46.17183 152.93167 40900 ft 387 kts 238°
2026-05-04 03:35 46.13611 152.87475 40893 ft 381 kts 238°
2026-05-04 03:36 46.10042 152.81789 40896 ft 386 kts 237°
2026-05-04 03:36 46.06464 152.76109 40900 ft 384 kts 238°
2026-05-04 03:37 46.02906 152.70475 40897 ft 381 kts 238°
2026-05-04 03:37 45.99333 152.64817 40897 ft 385 kts 238°
2026-05-04 03:38 45.95759 152.59182 40902 ft 381 kts 238°
2026-05-04 03:38 45.92174 152.53532 40903 ft 384 kts 238°
2026-05-04 03:39 45.88616 152.47947 40899 ft 377 kts 238°
2026-05-04 03:39 45.85085 152.42406 40889 ft 379 kts 238°
2026-05-04 03:40 45.81539 152.36854 40888 ft 377 kts 238°
2026-05-04 03:40 45.78011 152.31343 40911 ft 378 kts 238°
2026-05-04 03:41 45.74463 152.25813 40911 ft 376 kts 238°
2026-05-04 03:41 45.70914 152.20288 40915 ft 379 kts 237°
2026-05-04 03:42 45.67376 152.14799 40910 ft 375 kts 238°
2026-05-04 03:42 45.63843 152.09322 40915 ft 377 kts 237°
2026-05-04 03:43 45.60301 152.03845 40911 ft 375 kts 238°
2026-05-04 03:43 45.56767 151.98392 40905 ft 375 kts 238°
2026-05-04 03:44 45.53227 151.92938 40902 ft 373 kts 237°
2026-05-04 03:44 45.49713 151.87536 40900 ft 373 kts 237°
2026-05-04 03:45 45.46191 151.82132 40891 ft 374 kts 236°
2026-05-04 03:45 45.42664 151.76732 40894 ft 374 kts 237°
2026-05-04 03:46 45.39151 151.71365 40895 ft 370 kts 237°
2026-05-04 03:46 45.35642 151.66011 40890 ft 372 kts 237°
2026-05-04 03:47 45.32138 151.60680 40884 ft 370 kts 237°
2026-05-04 03:47 45.28612 151.55318 40887 ft 374 kts 237°
2026-05-04 03:48 45.25090 151.49983 40877 ft 369 kts 238°
2026-05-04 03:48 45.21568 151.44649 40880 ft 373 kts 236°
2026-05-04 03:49 45.18061 151.39356 40877 ft 368 kts 236°
2026-05-04 03:49 45.14545 151.34053 40884 ft 370 kts 236°
2026-05-04 03:50 45.11023 151.28751 40901 ft 372 kts 237°
2026-05-04 03:50 45.07490 151.23450 40896 ft 369 kts 236°
2026-05-04 03:51 45.03983 151.18192 40891 ft 370 kts 236°
2026-05-04 03:51 45.00452 151.12909 40893 ft 370 kts 236°
2026-05-04 03:52 44.96934 151.07660 40882 ft 369 kts 237°
2026-05-04 03:52 44.93401 151.02389 40901 ft 372 kts 236°
2026-05-04 03:53 44.89868 150.97139 40880 ft 369 kts 235°
2026-05-04 03:53 44.86336 150.91895 40881 ft 370 kts 237°
2026-05-04 03:54 44.82817 150.86682 40866 ft 368 kts 237°
2026-05-04 03:54 44.79271 150.81436 40869 ft 369 kts 236°
2026-05-04 03:55 44.75738 150.76221 40872 ft 370 kts 236°
2026-05-04 03:55 44.72178 150.70977 40869 ft 366 kts 235°
2026-05-04 03:56 44.68683 150.65840 40859 ft 365 kts 236°
2026-05-04 03:56 44.65124 150.60610 40859 ft 368 kts 235°
2026-05-04 03:57 44.61586 150.55430 40850 ft 367 kts 235°
2026-05-04 03:57 44.58056 150.50268 40840 ft 366 kts 235°
2026-05-04 03:58 44.52758 150.42540 40822 ft 366 kts 235°
2026-05-04 03:58 44.49228 150.37402 40828 ft 366 kts 235°
2026-05-04 03:59 44.45723 150.32313 40848 ft 363 kts 234°
2026-05-04 03:59 44.42195 150.27192 40840 ft 367 kts 234°
2026-05-04 04:00 44.38668 150.22091 40836 ft 364 kts 234°
2026-05-04 04:00 44.35148 150.17003 40828 ft 367 kts 235°
2026-05-04 04:01 44.31617 150.11914 40820 ft 364 kts 234°
2026-05-04 04:01 44.28084 150.06826 40816 ft 368 kts 234°
2026-05-04 04:02 44.24552 150.01754 40807 ft 365 kts 233°
2026-05-04 04:02 44.21027 149.96699 40809 ft 366 kts 234°
2026-05-04 04:03 44.17484 149.91627 40802 ft 365 kts 234°
2026-05-04 04:03 44.13953 149.86581 40790 ft 366 kts 234°
2026-05-04 04:04 44.10398 149.81512 40784 ft 365 kts 234°
2026-05-04 04:04 44.06841 149.76448 40777 ft 366 kts 234°
2026-05-04 04:05 44.03282 149.71391 40777 ft 365 kts 234°
2026-05-04 04:05 43.99752 149.66384 40774 ft 364 kts 234°
2026-05-04 04:06 43.96202 149.61357 40765 ft 365 kts 234°
2026-05-04 04:06 43.92649 149.56335 40761 ft 366 kts 234°
2026-05-04 04:07 43.89082 149.51302 40772 ft 368 kts 233°
2026-05-04 04:07 43.85523 149.46292 40775 ft 365 kts 233°
2026-05-04 04:08 43.81970 149.41299 40761 ft 366 kts 234°
2026-05-04 04:08 43.78380 149.36260 40754 ft 367 kts 234°
2026-05-04 04:09 43.74818 149.31274 40780 ft 365 kts 233°
2026-05-04 04:09 43.71238 149.26266 40770 ft 368 kts 233°
2026-05-04 04:10 43.67648 149.21258 40765 ft 367 kts 233°
2026-05-04 04:10 43.64059 149.16257 40765 ft 369 kts 232°
2026-05-04 04:11 43.60480 149.11283 40769 ft 365 kts 232°
2026-05-04 04:11 43.56898 149.06309 40755 ft 368 kts 233°
2026-05-04 04:12 43.53293 149.01314 40753 ft 368 kts 233°
2026-05-04 04:12 43.49690 148.96333 40751 ft 368 kts 233°
2026-05-04 04:13 43.46093 148.91368 40746 ft 365 kts 233°
2026-05-04 04:13 43.42494 148.86406 40731 ft 368 kts 232°
2026-05-04 04:14 43.38896 148.81459 40740 ft 365 kts 233°
2026-05-04 04:14 43.35302 148.76522 40738 ft 368 kts 233°
2026-05-04 04:15 43.31685 148.71563 40735 ft 368 kts 232°
2026-05-04 04:15 43.28086 148.66640 40723 ft 366 kts 232°
2026-05-04 04:16 43.24475 148.61708 40721 ft 368 kts 233°
2026-05-04 04:16 43.20870 148.56793 40716 ft 366 kts 232°
2026-05-04 04:17 43.17276 148.51902 40723 ft 366 kts 232°
2026-05-04 04:17 43.13668 148.46998 40713 ft 367 kts 232°
2026-05-04 04:18 43.10055 148.42099 40713 ft 366 kts 232°
2026-05-04 04:18 43.06448 148.37216 40705 ft 366 kts 232°
2026-05-04 04:19 43.02836 148.32333 40731 ft 366 kts 231°
2026-05-04 04:19 42.99204 148.27432 40728 ft 369 kts 231°
2026-05-04 04:20 42.95580 148.22554 40726 ft 364 kts 231°
2026-05-04 04:20 42.91954 148.17677 40718 ft 366 kts 231°
2026-05-04 04:21 42.88333 148.12818 40726 ft 365 kts 231°
2026-05-04 04:21 42.84696 148.07944 40725 ft 367 kts 231°
2026-05-04 04:22 42.81074 148.03103 40716 ft 364 kts 231°
2026-05-04 04:22 42.77449 147.98260 40718 ft 367 kts 231°
2026-05-04 04:23 42.73820 147.93425 40715 ft 365 kts 231°
2026-05-04 04:23 42.70186 147.88589 40707 ft 367 kts 231°
2026-05-04 04:24 42.66548 147.83758 40711 ft 366 kts 231°
2026-05-04 04:24 42.62924 147.78954 40706 ft 365 kts 231°
2026-05-04 04:25 42.59272 147.74117 40703 ft 369 kts 231°
2026-05-04 04:25 42.55611 147.69282 40694 ft 365 kts 231°
2026-05-04 04:26 42.51971 147.64479 40689 ft 368 kts 231°
2026-05-04 04:26 42.48306 147.59654 40671 ft 367 kts 231°
2026-05-04 04:27 42.44637 147.54832 40675 ft 368 kts 231°
2026-05-04 04:27 42.40964 147.50012 40675 ft 368 kts 231°
2026-05-04 04:28 42.37309 147.45221 40672 ft 367 kts 231°
2026-05-04 04:28 42.33639 147.40410 40650 ft 368 kts 231°
2026-05-04 04:29 42.29977 147.35620 40670 ft 369 kts 231°
2026-05-04 04:29 42.26270 147.30778 40682 ft 372 kts 231°
2026-05-04 04:30 42.22550 147.25930 40675 ft 369 kts 230°
2026-05-04 04:30 42.18866 147.21136 40667 ft 369 kts 230°
2026-05-04 04:31 42.15161 147.16322 40659 ft 371 kts 230°
2026-05-04 04:31 42.11444 147.11502 40662 ft 369 kts 230°
2026-05-04 04:32 42.07746 147.06715 40657 ft 369 kts 230°
2026-05-04 04:32 42.05905 147.04335 40771 ft 367 kts 230°
2026-05-04 04:32 42.04055 147.01939 40507 ft 376 kts 227°
2026-05-04 04:33 42.00317 146.97117 40765 ft 368 kts 226°
2026-05-04 04:33 41.98484 146.94758 40942 ft 362 kts 226°
2026-05-04 04:33 41.96682 146.92441 41160 ft 354 kts 226°
2026-05-04 04:34 41.94924 146.90180 41313 ft 349 kts 227°
2026-05-04 04:34 41.93168 146.87921 41269 ft 350 kts 227°
2026-05-04 04:34 41.91400 146.85649 41124 ft 354 kts 227°
2026-05-04 04:34 41.89608 146.83345 41016 ft 357 kts 227°
2026-05-04 04:35 41.86055 146.78781 41131 ft 351 kts 227°
2026-05-04 04:35 41.82552 146.74287 41113 ft 350 kts 227°
2026-05-04 04:36 41.80786 146.72025 40981 ft 354 kts 227°
2026-05-04 04:36 41.78997 146.69734 40910 ft 355 kts 227°
2026-05-04 04:36 41.75426 146.65170 41042 ft 349 kts 227°
2026-05-04 04:37 41.70158 146.58447 40865 ft 354 kts 227°
2026-05-04 04:37 41.68379 146.56180 40834 ft 354 kts 227°
2026-05-04 04:38 41.64847 146.51689 40964 ft 348 kts 227°
2026-05-04 04:38 41.61336 146.47227 40872 ft 351 kts 227°
2026-05-04 04:39 41.57787 146.42725 40776 ft 353 kts 227°
2026-05-04 04:39 41.54263 146.38265 40899 ft 348 kts 227°
2026-05-04 04:40 41.50748 146.33819 40786 ft 351 kts 226°
2026-05-04 04:40 41.47184 146.29321 40730 ft 352 kts 226°
2026-05-04 04:41 41.43645 146.24862 40857 ft 347 kts 226°
2026-05-04 04:41 41.40129 146.20436 40740 ft 351 kts 226°
2026-05-04 04:42 41.36578 146.15975 40731 ft 351 kts 226°
2026-05-04 04:42 41.33044 146.11544 40812 ft 348 kts 226°
2026-05-04 04:43 41.29515 146.07123 40698 ft 351 kts 226°
2026-05-04 04:43 41.25967 146.02687 40735 ft 350 kts 226°
2026-05-04 04:44 41.22447 145.98293 40785 ft 348 kts 226°
2026-05-04 04:44 41.18910 145.93882 40678 ft 351 kts 226°
2026-05-04 04:45 41.15362 145.89468 40731 ft 349 kts 226°
2026-05-04 04:47 41.02793 145.73879 40305 ft 355 kts 226°
2026-05-04 04:47 40.99176 145.69408 40321 ft 357 kts 226°
2026-05-04 04:48 40.95541 145.64913 40321 ft 358 kts 227°
2026-05-04 04:49 40.86368 145.53633 40308 ft 364 kts 226°
2026-05-04 04:49 40.82651 145.49073 40312 ft 367 kts 226°
2026-05-04 04:50 40.78894 145.44470 40299 ft 371 kts 226°
2026-05-04 04:50 40.75092 145.39818 40301 ft 375 kts 226°
2026-05-04 04:51 40.71239 145.35116 40309 ft 379 kts 226°
2026-05-04 04:51 40.67350 145.30375 40311 ft 385 kts 225°
2026-05-04 04:52 40.63367 145.25526 40316 ft 395 kts 225°
2026-05-04 04:52 40.59287 145.20566 40307 ft 405 kts 225°
2026-05-04 04:53 40.55098 145.15482 40321 ft 417 kts 225°
2026-05-04 04:53 40.50757 145.10226 40310 ft 428 kts 225°
2026-05-04 04:54 40.46298 145.04840 40297 ft 441 kts 225°
2026-05-04 04:54 40.41694 144.99289 40298 ft 454 kts 225°
2026-05-04 04:55 40.36963 144.93592 40287 ft 469 kts 225°
2026-05-04 04:55 40.32098 144.87747 40290 ft 482 kts 225°
2026-05-04 04:56 40.27101 144.81755 40285 ft 493 kts 225°
2026-05-04 04:56 40.21964 144.75609 40294 ft 501 kts 225°
2026-05-04 04:57 40.16852 144.69511 40633 ft 493 kts 225°
2026-05-04 04:57 40.14328 144.66506 41137 ft 485 kts 225°
2026-05-04 04:57 40.11832 144.63536 41270 ft 484 kts 225°
2026-05-04 04:58 40.06862 144.57628 41287 ft 476 kts 225°
2026-05-04 04:58 40.01974 144.51829 41281 ft 474 kts 225°
2026-05-04 04:59 39.97068 144.46019 41271 ft 475 kts 225°
2026-05-04 04:59 39.92160 144.40219 41281 ft 475 kts 225°
2026-05-04 05:00 39.87271 144.34454 41269 ft 475 kts 224°
2026-05-04 05:01 39.79929 144.25818 41275 ft 475 kts 224°
2026-05-04 05:01 39.75038 144.20079 41272 ft 475 kts 224°
2026-05-04 05:02 39.70134 144.14337 41264 ft 475 kts 224°
2026-05-04 05:02 39.65205 144.08576 41280 ft 475 kts 224°
2026-05-04 05:03 39.60286 144.02838 41268 ft 475 kts 224°
2026-05-04 05:04 39.50485 143.91439 41263 ft 474 kts 224°
2026-05-04 05:04 39.45571 143.85742 41251 ft 474 kts 224°
2026-05-04 05:06 39.25893 143.63041 41255 ft 474 kts 224°
2026-05-04 05:07 39.20982 143.57402 41258 ft 474 kts 224°
2026-05-04 05:07 39.16042 143.51743 41250 ft 474 kts 224°
2026-05-04 05:09 38.93865 143.26477 41241 ft 474 kts 221°
2026-05-04 05:10 38.88211 143.22091 41236 ft 480 kts 203°
2026-05-04 05:10 38.81914 143.19474 40937 ft 471 kts 199°
2026-05-04 05:11 38.78779 143.18260 40245 ft 475 kts 199°
2026-05-04 05:11 38.75610 143.17037 39437 ft 479 kts 199°
2026-05-04 05:11 38.72447 143.15820 39054 ft 471 kts 199°
2026-05-04 05:11 38.69333 143.14624 39005 ft 469 kts 199°
2026-05-04 05:12 38.66192 143.13418 38876 ft 476 kts 199°
2026-05-04 05:12 38.63007 143.12197 38697 ft 480 kts 199°
2026-05-04 05:12 38.59810 143.10975 38519 ft 478 kts 199°
2026-05-04 05:12 38.56626 143.09758 38350 ft 476 kts 199°
2026-05-04 05:13 38.53460 143.08550 38181 ft 476 kts 199°
2026-05-04 05:13 38.50276 143.07336 38010 ft 476 kts 199°
2026-05-04 05:13 38.47102 143.06127 37833 ft 476 kts 199°
2026-05-04 05:13 38.43934 143.04922 37664 ft 476 kts 199°
2026-05-04 05:14 38.40766 143.03717 37492 ft 475 kts 199°
2026-05-04 05:14 38.37599 143.02514 37321 ft 475 kts 199°
2026-05-04 05:14 38.34438 143.01315 37155 ft 475 kts 199°
2026-05-04 05:14 38.31273 143.00116 36981 ft 475 kts 199°
2026-05-04 05:15 38.28108 142.98917 36811 ft 475 kts 199°
2026-05-04 05:15 38.24951 142.97723 36643 ft 475 kts 199°
2026-05-04 05:15 38.21784 142.96525 36479 ft 475 kts 199°
2026-05-04 05:15 38.18618 142.95329 36309 ft 474 kts 199°
2026-05-04 05:16 38.15461 142.94138 36149 ft 474 kts 199°
2026-05-04 05:16 38.12305 142.92948 36008 ft 474 kts 199°
2026-05-04 05:16 38.09143 142.91757 35846 ft 474 kts 199°
2026-05-04 05:16 38.05986 142.90569 35678 ft 474 kts 199°
2026-05-04 05:17 38.02832 142.89384 35505 ft 473 kts 199°
2026-05-04 05:17 37.99682 142.88200 35330 ft 472 kts 199°
2026-05-04 05:17 37.96534 142.87019 35160 ft 473 kts 199°
2026-05-04 05:17 37.93378 142.85835 34988 ft 474 kts 199°
2026-05-04 05:18 37.90223 142.84653 34817 ft 474 kts 199°
2026-05-04 05:18 37.87061 142.83470 34645 ft 473 kts 199°
2026-05-04 05:18 37.83910 142.82292 34474 ft 473 kts 199°
2026-05-04 05:18 37.80754 142.81113 34301 ft 473 kts 199°
2026-05-04 05:19 37.77596 142.79934 34103 ft 474 kts 198°
2026-05-04 05:19 37.74434 142.78754 33928 ft 475 kts 199°
2026-05-04 05:19 37.71267 142.77574 33753 ft 475 kts 198°
2026-05-04 05:19 37.68094 142.76392 33578 ft 478 kts 198°
2026-05-04 05:20 37.64909 142.75208 33411 ft 478 kts 198°
2026-05-04 05:20 37.61717 142.74021 33235 ft 478 kts 198°
2026-05-04 05:20 37.58528 142.72838 33066 ft 479 kts 198°
2026-05-04 05:20 37.55329 142.71651 32890 ft 480 kts 198°
2026-05-04 05:21 37.52123 142.70469 32699 ft 481 kts 198°
2026-05-04 05:21 37.48915 142.69290 32496 ft 482 kts 198°
2026-05-04 05:21 37.45692 142.68108 32288 ft 482 kts 198°
2026-05-04 05:21 37.42466 142.66925 32091 ft 483 kts 198°
2026-05-04 05:22 37.39239 142.65742 31897 ft 484 kts 198°
2026-05-04 05:22 37.36006 142.64559 31700 ft 484 kts 198°
2026-05-04 05:22 37.32775 142.63377 31503 ft 485 kts 198°
2026-05-04 05:22 37.29533 142.62192 31304 ft 486 kts 198°
2026-05-04 05:23 37.26285 142.61006 31105 ft 487 kts 197°
2026-05-04 05:23 37.23032 142.59819 30864 ft 487 kts 197°
2026-05-04 05:23 37.19788 142.58637 30640 ft 484 kts 197°
2026-05-04 05:23 37.16562 142.57463 30446 ft 482 kts 197°
2026-05-04 05:24 37.13343 142.56292 30252 ft 481 kts 197°
2026-05-04 05:24 37.10132 142.55125 30058 ft 481 kts 197°
2026-05-04 05:24 37.06927 142.53962 29859 ft 480 kts 197°
2026-05-04 05:24 37.03730 142.52802 29660 ft 478 kts 197°
2026-05-04 05:25 37.00542 142.51647 29468 ft 477 kts 197°
2026-05-04 05:25 36.97365 142.50496 29274 ft 475 kts 197°
2026-05-04 05:25 36.94189 142.49347 29078 ft 474 kts 197°
2026-05-04 05:25 36.91026 142.48204 28882 ft 473 kts 197°
2026-05-04 05:26 36.87859 142.47064 28686 ft 472 kts 197°
2026-05-04 05:26 36.84714 142.45937 28489 ft 470 kts 197°
2026-05-04 05:26 36.81569 142.44811 28296 ft 469 kts 197°
2026-05-04 05:26 36.78442 142.43692 28102 ft 468 kts 197°
2026-05-04 05:27 36.75318 142.42575 27908 ft 467 kts 197°
2026-05-04 05:28 36.53681 142.34862 26584 ft 458 kts 196°
2026-05-04 05:29 36.50611 142.33772 26393 ft 457 kts 196°
2026-05-04 05:29 36.47540 142.32681 26203 ft 456 kts 196°
2026-05-04 05:29 36.44495 142.31601 26015 ft 454 kts 197°
2026-05-04 05:29 36.41463 142.30527 25831 ft 453 kts 196°
2026-05-04 05:31 36.21230 142.20712 24527 ft 444 kts 209°
2026-05-04 05:31 36.18537 142.18859 24425 ft 442 kts 209°
2026-05-04 05:32 36.15845 142.17009 24421 ft 443 kts 209°
2026-05-04 05:32 36.13148 142.15156 24422 ft 444 kts 209°
2026-05-04 05:32 36.10519 142.13178 24416 ft 443 kts 216°
2026-05-04 05:33 36.06207 142.07814 24401 ft 442 kts 235°
2026-05-04 05:33 36.04655 142.04553 24394 ft 442 kts 244°
2026-05-04 05:33 36.03365 142.01113 24395 ft 442 kts 246°
2026-05-04 05:33 36.02108 141.97659 24395 ft 442 kts 246°
2026-05-04 05:34 36.00855 141.94205 24395 ft 442 kts 246°
2026-05-04 05:34 35.99601 141.90749 24394 ft 442 kts 246°
2026-05-04 05:34 35.98349 141.87296 24392 ft 442 kts 246°
2026-05-04 05:34 35.97096 141.83839 24391 ft 442 kts 246°
2026-05-04 05:35 35.95853 141.80377 24386 ft 442 kts 248°
2026-05-04 05:35 35.94944 141.76772 24381 ft 442 kts 258°
2026-05-04 05:35 35.94541 141.73022 24370 ft 442 kts 267°
2026-05-04 05:35 35.94498 141.69246 24367 ft 442 kts 270°
2026-05-04 05:36 35.94504 141.65459 24366 ft 442 kts 270°
2026-05-04 05:36 35.94516 141.61678 24368 ft 442 kts 270°
2026-05-04 05:36 35.94529 141.57890 24362 ft 442 kts 270°
2026-05-04 05:36 35.94542 141.54106 24361 ft 442 kts 270°
2026-05-04 05:37 35.94555 141.50330 24360 ft 442 kts 270°
2026-05-04 05:37 35.94568 141.46546 24361 ft 442 kts 270°
2026-05-04 05:37 35.94581 141.42764 24359 ft 442 kts 270°
2026-05-04 05:38 35.94603 141.35205 24354 ft 442 kts 270°
2026-05-04 05:38 35.94613 141.31396 24355 ft 442 kts 270°
2026-05-04 05:38 35.94622 141.27591 24352 ft 441 kts 270°
2026-05-04 05:38 35.94630 141.23792 24355 ft 442 kts 270°
2026-05-04 05:39 35.94637 141.20007 24352 ft 442 kts 270°
2026-05-04 05:39 35.94647 141.12437 24352 ft 442 kts 270°
2026-05-04 05:39 35.94650 141.08655 24348 ft 442 kts 270°
2026-05-04 05:40 35.94695 141.01055 24338 ft 442 kts 274°
2026-05-04 05:40 35.95141 140.97306 24083 ft 445 kts 283°
2026-05-04 05:40 35.96077 140.93672 23508 ft 445 kts 292°
2026-05-04 05:41 35.97499 140.90249 22802 ft 443 kts 301°
2026-05-04 05:41 35.99129 140.87026 22110 ft 441 kts 302°
2026-05-04 05:41 36.00763 140.83840 21423 ft 439 kts 302°
2026-05-04 05:41 36.02393 140.80658 20721 ft 437 kts 302°
2026-05-04 05:42 36.04007 140.77501 20094 ft 432 kts 303°
2026-05-04 05:42 36.05595 140.74389 19449 ft 429 kts 303°
2026-05-04 05:42 36.07178 140.71284 18743 ft 427 kts 303°
2026-05-04 05:42 36.08737 140.68221 18184 ft 412 kts 303°
2026-05-04 05:43 36.10242 140.65259 17345 ft 400 kts 303°
2026-05-04 05:43 36.11702 140.62384 16628 ft 396 kts 303°
2026-05-04 05:43 36.13165 140.59503 15974 ft 395 kts 303°
2026-05-04 05:45 36.22969 140.42469 14876 ft 311 kts 327°
2026-05-04 05:45 36.24760 140.40987 14656 ft 305 kts 328°
2026-05-04 05:47 36.36925 140.31250 13707 ft 297 kts 328°
2026-05-04 05:47 36.38571 140.29720 13532 ft 297 kts 313°
2026-05-04 05:47 36.39626 140.27526 13328 ft 298 kts 288°
2026-05-04 05:48 36.39840 140.24964 13126 ft 299 kts 265°
2026-05-04 05:48 36.39531 140.22416 12926 ft 299 kts 258°
2026-05-04 05:48 36.39079 140.19913 12741 ft 294 kts 256°
2026-05-04 05:48 36.38607 140.17483 12621 ft 285 kts 256°
2026-05-04 05:49 36.38141 140.15110 12353 ft 283 kts 256°
2026-05-04 05:49 36.37675 140.12736 12043 ft 283 kts 256°
2026-05-04 05:49 36.37209 140.10366 11731 ft 282 kts 256°
2026-05-04 05:49 36.36745 140.08008 11444 ft 281 kts 256°
2026-05-04 05:51 36.28029 139.97723 9339 ft 266 kts 193°
2026-05-04 05:51 36.26238 139.97120 9064 ft 265 kts 193°
2026-05-04 05:52 36.24461 139.96523 8788 ft 264 kts 193°
2026-05-04 05:52 36.22698 139.95931 8609 ft 259 kts 193°
2026-05-04 05:52 36.20931 139.95340 8630 ft 265 kts 193°
2026-05-04 05:52 36.19146 139.94741 8585 ft 263 kts 193°
2026-05-04 05:53 36.17372 139.94144 8578 ft 263 kts 193°
2026-05-04 05:54 36.06333 139.90434 8634 ft 218 kts 193°
2026-05-04 05:55 36.04856 139.89940 8671 ft 218 kts 193°
2026-05-04 05:55 36.03354 139.89439 8703 ft 237 kts 193°
2026-05-04 05:55 36.01685 139.88886 8610 ft 249 kts 193°
2026-05-04 05:55 36.00021 139.88335 8392 ft 245 kts 193°
2026-05-04 05:56 35.98362 139.88056 8131 ft 237 kts 170°
2026-05-04 05:56 35.96893 139.88742 7968 ft 217 kts 141°
2026-05-04 05:56 35.95910 139.90069 7840 ft 208 kts 124°
2026-05-04 05:56 35.95104 139.91543 7724 ft 207 kts 123°
2026-05-04 05:57 35.94308 139.93022 7422 ft 204 kts 123°
2026-05-04 05:57 35.93492 139.94426 7173 ft 200 kts 133°
2026-05-04 05:57 35.92356 139.95423 6948 ft 202 kts 153°
2026-05-04 05:57 35.91076 139.96077 6701 ft 195 kts 155°
2026-05-04 05:58 35.89817 139.96672 6469 ft 192 kts 157°
2026-05-04 05:58 35.88568 139.97230 6249 ft 191 kts 158°
2026-05-04 05:58 35.87313 139.97780 6029 ft 190 kts 157°
2026-05-04 05:58 35.86012 139.98092 5872 ft 193 kts 177°
2026-05-04 05:59 35.84655 139.97999 5815 ft 195 kts 180°
2026-05-04 05:59 35.83290 139.97866 5755 ft 196 kts 181°
2026-05-04 05:59 35.81927 139.97718 5686 ft 195 kts 181°
2026-05-04 05:59 35.80569 139.97565 5613 ft 195 kts 183°
2026-05-04 06:00 35.79264 139.97012 5591 ft 203 kts 206°
2026-05-04 06:00 35.78075 139.96065 5568 ft 199 kts 211°
2026-05-04 06:00 35.76978 139.95121 5559 ft 185 kts 211°
2026-05-04 06:00 35.75921 139.94210 5447 ft 188 kts 211°
2026-05-04 06:01 35.74852 139.93267 5091 ft 187 kts 211°
2026-05-04 06:01 35.73813 139.92350 4797 ft 180 kts 210°
2026-05-04 06:03 35.66599 139.86139 2233 ft 172 kts 204°
2026-05-04 06:03 35.65622 139.85330 1955 ft 166 kts 204°
2026-05-04 06:05 35.59209 139.79788 746 ft 161 kts 205°
2026-05-04 06:05 35.57358 139.78222 215 ft 158 kts 207°
2026-05-04 06:05 35.56445 139.77453 34 ft 157 kts 214°
2026-05-04 06:06 35.55717 139.76831 30 ft 86 kts 215°
2026-05-04 06:06 35.55406 139.76561 35 ft 27 kts 215°
2026-05-04 06:06 35.55293 139.76489 38 ft 17 kts 198°
2026-05-04 06:06 35.55180 139.76460 40 ft 13 kts 190°
2026-05-04 06:07 35.55099 139.76461 41 ft 11 kts 154°
2026-05-04 06:07 35.55072 139.76534 42 ft 10 kts 78°
2026-05-04 06:07 35.55114 139.76631 39 ft 14 kts 60°
2026-05-04 06:07 35.55183 139.76776 32 ft 25 kts 59°
2026-05-04 06:08 35.55265 139.76948 33 ft 11 kts 59°
2026-05-04 06:08 35.55274 139.77018 36 ft 9 kts 112°
2026-05-04 06:08 35.55184 139.77102 35 ft 18 kts 150°
2026-05-04 06:08 35.55064 139.77185 31 ft 21 kts 150°
2026-05-04 06:09 35.54935 139.77279 33 ft 19 kts 149°
2026-05-04 06:09 35.54832 139.77292 34 ft 15 kts 216°
2026-05-04 06:11 35.54583 139.77017 37 ft 0 kts 240°